This is the latest recevied weather packets stored in our database for station/object N2WH. If no packets are shown the sender has not sent any weather packets the latest 10 day(s).
| Time | Temp. | Humidity | Pressure | Rain* | Wind** | Luminosity | Snow |
|---|---|---|---|---|---|---|---|
| 1777933396 | 21.11° C | 40% | 1009.8 hPa | 0 mm | - | 36 W/m² | - |
| 1777933094 | 21.11° C | 40% | 1009.8 hPa | 0 mm | - | 39 W/m² | - |
| 1777932790 | 20.56° C | 38% | 1009.8 hPa | 0 mm | - | 35 W/m² | - |
| 1777932488 | 21.11° C | 39% | 1009.8 hPa | 0 mm | - | 41 W/m² | - |
| 1777932184 | 20.56° C | 39% | 1009.8 hPa | 0 mm | - | 39 W/m² | - |
| 1777931882 | 20.56° C | 39% | 1009.8 hPa | 0 mm | - | 39 W/m² | - |
| 1777931578 | 21.11° C | 39% | 1010 hPa | 0 mm | - | 44 W/m² | - |
| 1777931274 | 21.11° C | 39% | 1010 hPa | 0 mm | - | 44 W/m² | - |
| 1777930970 | 21.67° C | 38% | 1010.2 hPa | 0 mm | - | 54 W/m² | - |
| 1777930667 | 21.67° C | 37% | 1010 hPa | 0 mm | - | 59 W/m² | - |
| 1777930363 | 21.67° C | 36% | 1010.3 hPa | 0 mm | - | 61 W/m² | - |
| 1777930061 | 21.67° C | 36% | 1010.4 hPa | 0 mm | - | 77 W/m² | - |
| 1777929757 | 21.11° C | 38% | 1010.2 hPa | 0 mm | - | 61 W/m² | - |
| 1777929455 | 21.67° C | 37% | 1010.2 hPa | 0 mm | - | 74 W/m² | - |
| 1777929151 | 21.67° C | 38% | 1010.3 hPa | 0 mm | - | 64 W/m² | - |
| 1777928849 | 21.67° C | 37% | 1010.2 hPa | 0 mm | - | 85 W/m² | - |
| 1777928545 | 22.22° C | 36% | 1010.2 hPa | 0 mm | - | 91 W/m² | - |
| 1777928242 | 22.22° C | 36% | 1010.2 hPa | 0 mm | - | 90 W/m² | - |
| 1777927940 | 22.22° C | 35% | 1010.3 hPa | 0 mm | - | 92 W/m² | - |
| 1777927638 | 22.78° C | 35% | 1010.2 hPa | 0 mm | - | 97 W/m² | - |
| 1777927336 | 22.78° C | 34% | 1010.3 hPa | 0 mm | - | 365 W/m² | - |
| 1777927035 | 23.33° C | 35% | 1010.2 hPa | 0 mm | - | 427 W/m² | - |
| 1777926733 | 23.33° C | 33% | 1009.8 hPa | 0 mm | - | 429 W/m² | - |
| 1777926432 | 23.33° C | 34% | 1010 hPa | 0 mm | - | 270 W/m² | - |
| 1777926130 | 23.33° C | 33% | 1010.3 hPa | 0 mm | - | 254 W/m² | - |
* Rain latest hour (hover to see other rain measurements)
** Current wind speed in m/s (hover to see current wind gust speed)